Nyk Rumina — 9V7645 — position and weather

sailwx.info

Track history (hours):
 
Tides and Currents Weather Stations Pressure Air Temp Water Temp Dewpoint Dewpoint Depression Visibility Wind Speed Wind Dir Waves Ship Positions

Nyk Rumina

Last reported at 2018-Feb-14 09:41 UTC. Time now 2018-Feb-21 03:29 UTC.
Position N 32°18' W 117°41'.

Length 294 m; draft 11 m.

Type: Ship. MMSI: 563758000.

Date/timePositionNaut miles runAvg speedWind from/ knotsBaromVisibWave heightAir tempDewpointWater temp
2018-Feb-14 09:41N 32°18' W 117°41'317.7
2018-Feb-14 09:30N 32°21' W 117°43'816.8
2018-Feb-14 09:00N 32°29' W 117°46'816.5
2018-Feb-14 08:30N 32°37' W 117°49'816.7
2018-Feb-14 08:00N 32°45' W 117°53'1020.0
2018-Feb-14 07:30N 32°54' W 117°57'918.5
2018-Feb-14 07:00N 33°03' W 117°60'612.3
2018-Feb-14 06:30N 33°09' W 118°02'611.8
2018-Feb-14 06:00N 33°14' W 118°05'611.8
2018-Feb-14 05:30N 33°20' W 118°07'611.9
2018-Feb-14 04:59N 33°26' W 118°09'611.7
2018-Feb-14 04:30N 33°31' W 118°12'711.1
2018-Feb-14 03:50N 33°39' W 118°13'411.8
2018-Feb-14 03:31N 33°42' W 118°11'2 4.5
2018-Feb-14 03:00N 33°44' W 118°12'1 1.2
2018-Feb-14 02:30N 33°45' W 118°12'0 0.1
2018-Feb-14 02:00N 33°45' W 118°12'0 0.1
2018-Feb-14 01:30N 33°45' W 118°12'0 0.0
2018-Feb-14 01:00N 33°45' W 118°12'0 0.1
2018-Feb-14 00:30N 33°45' W 118°12'0 0.1
2018-Feb-13 23:57N 33°45' W 118°12'0 0.0
2018-Feb-13 23:30N 33°45' W 118°12'0 0.0
2018-Feb-13 23:00N 33°45' W 118°12'0 0.0
2018-Feb-13 22:30N 33°45' W 118°12'0 0.0
2018-Feb-13 22:00N 33°45' W 118°12'0 0.0
2018-Feb-13 21:30N 33°45' W 118°12'0 0.0
2018-Feb-13 21:00N 33°45' W 118°12'0 0.0
2018-Feb-13 20:30N 33°45' W 118°12'0 0.0
2018-Feb-13 20:00N 33°45' W 118°12'0 0.1
2018-Feb-13 19:30N 33°45' W 118°12'0 0.1
2018-Feb-13 19:00N 33°45' W 118°12'0 0.0
2018-Feb-13 18:30N 33°45' W 118°12'0 0.0
2018-Feb-13 18:00N 33°45' W 118°12'0 0.1
2018-Feb-13 17:30N 33°45' W 118°12'0 0.0
2018-Feb-13 16:57N 33°45' W 118°12'0 0.0
2018-Feb-13 16:30N 33°45' W 118°12'0 0.1
2018-Feb-13 16:00N 33°45' W 118°12'0 0.0
2018-Feb-13 15:30N 33°45' W 118°12'0 0.1
2018-Feb-13 15:00N 33°45' W 118°12'0 0.1
2018-Feb-13 14:30N 33°45' W 118°12'1 1.7
2018-Feb-13 14:01N 33°44' W 118°12'3 6.7
2018-Feb-13 13:30N 33°41' W 118°11'5 9.1
2018-Feb-13 13:00N 33°37' W 118°14'3 6.9
2018-Feb-13 12:30N 33°36' W 118°18'4 7.5
2018-Feb-13 12:00N 33°37' W 118°23'5 9.7
2018-Feb-13 11:30N 33°39' W 118°28'5 9.7
2018-Feb-13 11:00N 33°42' W 118°33'5 9.3
2018-Feb-13 10:30N 33°44' W 118°38'5 9.5
2018-Feb-13 10:00N 33°47' W 118°43'5 9.9
2018-Feb-13 09:30N 33°49' W 118°48'5 9.5
2018-Feb-13 09:00N 33°51' W 118°53'5 9.7
2018-Feb-13 08:30N 33°54' W 118°58'5 9.7
2018-Feb-13 08:00N 33°56' W 119°03'5 9.9
2018-Feb-13 07:30N 33°59' W 119°08'5 9.5
2018-Feb-13 07:00N 34°01' W 119°13'5 9.6
2018-Feb-13 06:30N 34°03' W 119°19'5 9.4
2018-Feb-13 06:00N 34°04' W 119°24'5 9.5
2018-Feb-13 05:30N 34°05' W 119°30'5 9.6
2018-Feb-13 05:00N 34°07' W 119°35'5 9.7
2018-Feb-13 04:29N 34°08' W 119°41'5 9.9
2018-Feb-13 03:57N 34°10' W 119°47'510.1
2018-Feb-13 03:28N 34°11' W 119°53'810.1
2018-Feb-13 02:42N 34°13' W 120°02'510.4
2018-Feb-13 02:14N 34°14' W 120°07'310.3
2018-Feb-13 01:59N 34°15' W 120°10'510.2
2018-Feb-13 01:29N 34°16' W 120°16'610.1
2018-Feb-13 00:54N 34°18' W 120°23'410.1
2018-Feb-13 00:29N 34°19' W 120°28'510.2
2018-Feb-12 23:57N 34°20' W 120°34'510.0
2018-Feb-12 23:29N 34°21' W 120°40'5 9.7
2018-Feb-12 23:00N 34°22' W 120°46'5 9.6
2018-Feb-12 22:30N 34°24' W 120°51'5 9.7
2018-Feb-12 22:00N 34°25' W 120°56'510.0
2018-Feb-12 21:30N 34°29' W 121°01'510.3
2018-Feb-12 21:00N 34°33' W 121°04'5 9.8
2018-Feb-12 20:30N 34°37' W 121°08'5 9.4
2018-Feb-12 20:00N 34°41' W 121°11'5 9.7
2018-Feb-12 19:30N 34°45' W 121°14'5 9.7
2018-Feb-12 19:00N 34°49' W 121°17'5 9.9
2018-Feb-12 18:30N 34°54' W 121°20'510.1
2018-Feb-12 18:00N 34°58' W 121°23'510.0
2018-Feb-12 17:30N 35°02' W 121°26'5 9.8
2018-Feb-12 17:00N 35°07' W 121°29'5 9.7
2018-Feb-12 16:30N 35°11' W 121°32'510.9
2018-Feb-12 16:00N 35°15' W 121°35'611.2
2018-Feb-12 15:30N 35°20' W 121°39'611.3
2018-Feb-12 15:00N 35°25' W 121°42'9211.3
2018-Feb-12 06:49N 36°48' W 122°33'411.2
2018-Feb-12 06:27N 36°51' W 122°35'511.4
2018-Feb-12 05:59N 36°56' W 122°37'611.5
2018-Feb-12 05:30N 37°02' W 122°39'611.8
2018-Feb-12 05:00N 37°07' W 122°42'611.5
2018-Feb-12 04:30N 37°13' W 122°44'611.6
2018-Feb-12 04:00N 37°19' W 122°43'611.5
2018-Feb-12 03:30N 37°24' W 122°44'611.1
2018-Feb-12 03:00N 37°30' W 122°44'510.9
2018-Feb-12 02:30N 37°35' W 122°44'510.7
2018-Feb-12 02:00N 37°41' W 122°43'510.9
2018-Feb-12 01:30N 37°46' W 122°40'714.0
2018-Feb-12 01:00N 37°48' W 122°32'713.5
2018-Feb-12 00:30N 37°49' W 122°24'4 7.8
2018-Feb-12 00:00N 37°48' W 122°19'0 0.1
2018-Feb-11 23:28N 37°48' W 122°19'0 0.0
2018-Feb-11 22:58N 37°48' W 122°19'0 0.0
2018-Feb-11 22:28N 37°48' W 122°19'0 0.0
2018-Feb-11 21:58N 37°48' W 122°19'0 0.0
2018-Feb-11 21:28N 37°48' W 122°19'0 0.0
2018-Feb-11 20:58N 37°48' W 122°19'0 0.0
2018-Feb-11 20:28N 37°48' W 122°19'0 0.0
2018-Feb-11 19:58N 37°48' W 122°19'0 0.0
2018-Feb-11 19:28N 37°48' W 122°19'0 0.0
2018-Feb-11 18:58N 37°48' W 122°19'0 0.0
2018-Feb-11 18:28N 37°48' W 122°19'0 0.0
2018-Feb-11 17:58N 37°48' W 122°19'0 0.0
2018-Feb-11 17:28N 37°48' W 122°19'0 0.0
2018-Feb-11 16:58N 37°48' W 122°19'0 0.0
2018-Feb-11 16:28N 37°48' W 122°19'0 0.0
2018-Feb-11 15:58N 37°48' W 122°19'0 0.0
2018-Feb-11 15:28N 37°48' W 122°19'0 0.0
2018-Feb-11 14:58N 37°48' W 122°19'0 0.0
2018-Feb-11 14:28N 37°48' W 122°19'0 0.0
2018-Feb-11 13:58N 37°48' W 122°19'0 0.1
2018-Feb-11 13:30N 37°48' W 122°19'1 2.9
2018-Feb-11 13:00N 37°48' W 122°17'2 3.1
2018-Feb-11 12:30N 37°48' W 122°19'4 7.6
2018-Feb-11 12:00N 37°49' W 122°24'713.8
2018-Feb-11 11:30N 37°47' W 122°32'714.2
2018-Feb-11 11:00N 37°45' W 122°41'510.1
2018-Feb-11 10:30N 37°47' W 122°47'510.3
2018-Feb-11 10:00N 37°49' W 122°53'612.4
2018-Feb-11 09:30N 37°52' W 122°60'612.5
2018-Feb-11 09:00N 37°55' W 123°06'612.3
2018-Feb-11 08:30N 37°59' W 123°13'612.4
2018-Feb-11 08:00N 38°04' W 123°18'612.4
2018-Feb-11 07:30N 38°09' W 123°23'612.4
2018-Feb-11 07:00N 38°13' W 123°28'612.4
2018-Feb-11 06:30N 38°18' W 123°34'612.5
2018-Feb-11 06:00N 38°22' W 123°39'612.5
2018-Feb-11 05:30N 38°26' W 123°45'612.7
2018-Feb-11 05:00N 38°31' W 123°51'612.8
2018-Feb-11 04:30N 38°35' W 123°57'612.6
2018-Feb-11 04:00N 38°40' W 124°02'43613.2
2018-Feb-09 19:01N 45°51' W 125°28'4321.4
2018-Feb-09 17:00N 46°34' W 125°28'12118.5
2018-Feb-09 10:30N 48°30' W 124°39'5712.7
2018-Feb-09 06:01N 48°40' W 123°15'2311.6
2018-Feb-09 04:00N 49°03' W 123°21'9 9.4
2018-Feb-09 03:00N 49°07' W 123°07'9 0.4
2018-Feb-08 01:30N 49°11' W 122°55'2 5.1
2018-Feb-08 01:00N 49°09' W 122°58'4 8.3
2018-Feb-08 00:30N 49°08' W 123°04'5 9.4
2018-Feb-08 00:00N 49°07' W 123°11'5 9.8
2018-Feb-07 23:30N 49°06' W 123°19'3 7.0
2018-Feb-07 23:00N 49°03' W 123°19'1 1.8
2018-Feb-07 22:30N 49°02' W 123°18'3 5.8
2018-Feb-07 22:00N 49°00' W 123°15'816.5
2018-Feb-07 21:31N 48°55' W 123°06'102 8.5
2018-Feb-07 09:30N 47°16' W 122°25'0 0.0
2018-Feb-07 09:00N 47°16' W 122°25'0 0.0
2018-Feb-07 08:30N 47°16' W 122°25'0 0.0
2018-Feb-07 08:00N 47°16' W 122°25'0 0.0
2018-Feb-07 07:30N 47°16' W 122°25'0 0.0
2018-Feb-07 07:00N 47°16' W 122°25'0 0.0
2018-Feb-07 06:29N 47°16' W 122°25'0 0.0
2018-Feb-07 05:57N 47°16' W 122°25'0 0.0
2018-Feb-07 05:30N 47°16' W 122°25'0 0.0
2018-Feb-07 04:51N 47°16' W 122°25'0 0.0
2018-Feb-07 04:24N 47°16' W 122°25'0 0.0
2018-Feb-07 03:51N 47°16' W 122°25'0 0.0
2018-Feb-07 03:30N 47°16' W 122°25'0 0.0
2018-Feb-07 02:57N 47°16' W 122°25'0 0.0
2018-Feb-07 02:30N 47°16' W 122°25'0 0.0
2018-Feb-07 01:59N 47°16' W 122°25'0 0.0
2018-Feb-07 01:29N 47°16' W 122°25'0 0.7
2018-Feb-07 01:00N 47°17' W 122°25'1 1.6
2018-Feb-07 00:30N 47°17' W 122°26'3 5.9
2018-Feb-07 00:00N 47°20' W 122°27'612.4
2018-Feb-06 23:30N 47°26' W 122°24'815.9
2018-Feb-06 23:00N 47°34' W 122°27'917.9
2018-Feb-06 22:30N 47°43' W 122°28'1019.1
2018-Feb-06 22:00N 47°52' W 122°29'918.8
2018-Feb-06 21:30N 47°60' W 122°37'918.0
2018-Feb-06 20:59N 48°08' W 122°43'918.6
2018-Feb-06 20:30N 48°11' W 122°56'1020.3
2018-Feb-06 20:00N 48°12' W 123°11'816.3
2018-Feb-06 19:30N 48°10' W 123°23'1113.3
2018-Feb-06 18:41N 48°13' W 123°38'415.9
2018-Feb-06 18:25N 48°13' W 123°45'615.1
2018-Feb-06 18:00N 48°13' W 123°54'815.3
2018-Feb-06 17:30N 48°16' W 124°05'714.2
2018-Feb-06 17:00N 48°19' W 124°15'713.3
2018-Feb-06 16:30N 48°22' W 124°24'2315.5
2018-Feb-06 15:00N 48°29' W 124°58'613.1
2018-Feb-06 14:30N 48°23' W 125°03'815.1
2018-Feb-06 13:59N 48°16' W 125°08'814.8
2018-Feb-06 13:29N 48°09' W 125°11'10517.4
2018-Feb-06 07:25N 46°24' W 125°28'717.3
2018-Feb-06 07:00N 46°17' W 125°28'1317.6
2018-Feb-06 06:15N 46°04' W 125°28'918.0
2018-Feb-06 05:45N 45°55' W 125°28'418.2
2018-Feb-06 05:30N 45°50' W 125°28'918.3
2018-Feb-06 05:00N 45°41' W 125°28'1818.3
2018-Feb-06 04:00N 45°23' W 125°27'918.2
2018-Feb-06 03:30N 45°14' W 125°28'7018.4
2018-Feb-05 23:41N 44°04' W 125°28'30318.7
2018-Feb-05 07:30N 39°05' W 124°21'1119.4
2018-Feb-05 06:55N 38°56' W 124°11'920.1
2018-Feb-05 06:27N 38°49' W 124°03'1919.8
2018-Feb-05 05:31N 38°35' W 123°48'1019.5
2018-Feb-05 05:01N 38°28' W 123°39'1019.3
2018-Feb-05 04:31N 38°20' W 123°32'1019.7
2018-Feb-05 04:01N 38°13' W 123°24'1019.9
2018-Feb-05 03:30N 38°05' W 123°16'1019.9
2018-Feb-05 03:01N 37°58' W 123°07'1020.3
2018-Feb-05 02:31N 37°53' W 122°56'918.1
2018-Feb-05 02:01N 37°48' W 122°46'611.7
2018-Feb-05 01:30N 37°46' W 122°39'714.5
2018-Feb-05 01:00N 37°49' W 122°31'611.7
2018-Feb-05 00:30N 37°49' W 122°23'4 7.6
2018-Feb-05 00:00N 37°48' W 122°19'0 0.1
2018-Feb-04 23:30N 37°48' W 122°19'0 0.0
2018-Feb-04 23:00N 37°48' W 122°19'0 0.0
2018-Feb-04 22:30N 37°48' W 122°19'0 0.0
2018-Feb-04 22:00N 37°48' W 122°19'0 0.0
2018-Feb-04 21:30N 37°48' W 122°19'0 0.0
2018-Feb-04 21:00N 37°48' W 122°19'0 0.0
2018-Feb-04 20:00N 37°48' W 122°19'0 0.0
2018-Feb-04 19:30N 37°48' W 122°19'0 0.0
2018-Feb-04 19:00N 37°48' W 122°19'0 0.0
2018-Feb-04 18:30N 37°48' W 122°19'0 0.0
2018-Feb-04 17:58N 37°48' W 122°19'0 0.0
2018-Feb-04 17:30N 37°48' W 122°19'0 0.0
2018-Feb-04 15:31N 37°48' W 122°19'0 0.0
2018-Feb-04 15:00N 37°48' W 122°19'0 0.0
2018-Feb-04 14:30N 37°48' W 122°19'0 0.0
2018-Feb-04 14:00N 37°48' W 122°19'0 0.1
2018-Feb-04 13:30N 37°48' W 122°19'1 1.7
2018-Feb-04 13:00N 37°48' W 122°17'3 5.1
2018-Feb-04 12:30N 37°48' W 122°21'5 9.5
2018-Feb-04 12:01N 37°49' W 122°26'611.0
2018-Feb-04 11:30N 37°47' W 122°33'13 8.7
2018-Feb-04 10:00N 37°35' W 122°40'  
Track history (hours):
 
Tides and Currents Weather Stations Pressure Air Temp Water Temp Dewpoint Dewpoint Depression Visibility Wind Speed Wind Dir Waves Ship Positions

Nyk Rumina

Last reported at 2018-Feb-14 09:41 UTC. Time now 2018-Feb-21 03:29 UTC.
Position N 32°18' W 117°41'.

Length 294 m; draft 11 m.

Type: Ship. MMSI: 563758000.

Date/timePositionNaut miles runAvg speedWind from/ knotsBaromVisibWave heightAir tempDewpointWater temp
2018-Feb-14 09:41N 32°18' W 117°41'317.7
2018-Feb-14 09:30N 32°21' W 117°43'816.8
2018-Feb-14 09:00N 32°29' W 117°46'816.5
2018-Feb-14 08:30N 32°37' W 117°49'816.7
2018-Feb-14 08:00N 32°45' W 117°53'1020.0
2018-Feb-14 07:30N 32°54' W 117°57'918.5
2018-Feb-14 07:00N 33°03' W 117°60'612.3
2018-Feb-14 06:30N 33°09' W 118°02'611.8
2018-Feb-14 06:00N 33°14' W 118°05'611.8
2018-Feb-14 05:30N 33°20' W 118°07'611.9
2018-Feb-14 04:59N 33°26' W 118°09'611.7
2018-Feb-14 04:30N 33°31' W 118°12'711.1
2018-Feb-14 03:50N 33°39' W 118°13'411.8
2018-Feb-14 03:31N 33°42' W 118°11'2 4.5
2018-Feb-14 03:00N 33°44' W 118°12'1 1.2
2018-Feb-14 02:30N 33°45' W 118°12'0 0.1
2018-Feb-14 02:00N 33°45' W 118°12'0 0.1
2018-Feb-14 01:30N 33°45' W 118°12'0 0.0
2018-Feb-14 01:00N 33°45' W 118°12'0 0.1
2018-Feb-14 00:30N 33°45' W 118°12'0 0.1
2018-Feb-13 23:57N 33°45' W 118°12'0 0.0
2018-Feb-13 23:30N 33°45' W 118°12'0 0.0
2018-Feb-13 23:00N 33°45' W 118°12'0 0.0
2018-Feb-13 22:30N 33°45' W 118°12'0 0.0
2018-Feb-13 22:00N 33°45' W 118°12'0 0.0
2018-Feb-13 21:30N 33°45' W 118°12'0 0.0
2018-Feb-13 21:00N 33°45' W 118°12'0 0.0
2018-Feb-13 20:30N 33°45' W 118°12'0 0.0
2018-Feb-13 20:00N 33°45' W 118°12'0 0.1
2018-Feb-13 19:30N 33°45' W 118°12'0 0.1
2018-Feb-13 19:00N 33°45' W 118°12'0 0.0
2018-Feb-13 18:30N 33°45' W 118°12'0 0.0
2018-Feb-13 18:00N 33°45' W 118°12'0 0.1
2018-Feb-13 17:30N 33°45' W 118°12'0 0.0
2018-Feb-13 16:57N 33°45' W 118°12'0 0.0
2018-Feb-13 16:30N 33°45' W 118°12'0 0.1
2018-Feb-13 16:00N 33°45' W 118°12'0 0.0
2018-Feb-13 15:30N 33°45' W 118°12'0 0.1
2018-Feb-13 15:00N 33°45' W 118°12'0 0.1
2018-Feb-13 14:30N 33°45' W 118°12'1 1.7
2018-Feb-13 14:01N 33°44' W 118°12'3 6.7
2018-Feb-13 13:30N 33°41' W 118°11'5 9.1
2018-Feb-13 13:00N 33°37' W 118°14'3 6.9
2018-Feb-13 12:30N 33°36' W 118°18'4 7.5
2018-Feb-13 12:00N 33°37' W 118°23'5 9.7
2018-Feb-13 11:30N 33°39' W 118°28'5 9.7
2018-Feb-13 11:00N 33°42' W 118°33'5 9.3
2018-Feb-13 10:30N 33°44' W 118°38'5 9.5
2018-Feb-13 10:00N 33°47' W 118°43'5 9.9
2018-Feb-13 09:30N 33°49' W 118°48'5 9.5
2018-Feb-13 09:00N 33°51' W 118°53'5 9.7
2018-Feb-13 08:30N 33°54' W 118°58'5 9.7
2018-Feb-13 08:00N 33°56' W 119°03'5 9.9
2018-Feb-13 07:30N 33°59' W 119°08'5 9.5
2018-Feb-13 07:00N 34°01' W 119°13'5 9.6
2018-Feb-13 06:30N 34°03' W 119°19'5 9.4
2018-Feb-13 06:00N 34°04' W 119°24'5 9.5
2018-Feb-13 05:30N 34°05' W 119°30'5 9.6
2018-Feb-13 05:00N 34°07' W 119°35'5 9.7
2018-Feb-13 04:29N 34°08' W 119°41'5 9.9
2018-Feb-13 03:57N 34°10' W 119°47'510.1
2018-Feb-13 03:28N 34°11' W 119°53'810.1
2018-Feb-13 02:42N 34°13' W 120°02'510.4
2018-Feb-13 02:14N 34°14' W 120°07'310.3
2018-Feb-13 01:59N 34°15' W 120°10'510.2
2018-Feb-13 01:29N 34°16' W 120°16'610.1
2018-Feb-13 00:54N 34°18' W 120°23'410.1
2018-Feb-13 00:29N 34°19' W 120°28'510.2
2018-Feb-12 23:57N 34°20' W 120°34'510.0
2018-Feb-12 23:29N 34°21' W 120°40'5 9.7
2018-Feb-12 23:00N 34°22' W 120°46'5 9.6
2018-Feb-12 22:30N 34°24' W 120°51'5 9.7
2018-Feb-12 22:00N 34°25' W 120°56'510.0
2018-Feb-12 21:30N 34°29' W 121°01'510.3
2018-Feb-12 21:00N 34°33' W 121°04'5 9.8
2018-Feb-12 20:30N 34°37' W 121°08'5 9.4
2018-Feb-12 20:00N 34°41' W 121°11'5 9.7
2018-Feb-12 19:30N 34°45' W 121°14'5 9.7
2018-Feb-12 19:00N 34°49' W 121°17'5 9.9
2018-Feb-12 18:30N 34°54' W 121°20'510.1
2018-Feb-12 18:00N 34°58' W 121°23'510.0
2018-Feb-12 17:30N 35°02' W 121°26'5 9.8
2018-Feb-12 17:00N 35°07' W 121°29'5 9.7
2018-Feb-12 16:30N 35°11' W 121°32'510.9
2018-Feb-12 16:00N 35°15' W 121°35'611.2
2018-Feb-12 15:30N 35°20' W 121°39'611.3
2018-Feb-12 15:00N 35°25' W 121°42'9211.3
2018-Feb-12 06:49N 36°48' W 122°33'411.2
2018-Feb-12 06:27N 36°51' W 122°35'511.4
2018-Feb-12 05:59N 36°56' W 122°37'611.5
2018-Feb-12 05:30N 37°02' W 122°39'611.8
2018-Feb-12 05:00N 37°07' W 122°42'611.5
2018-Feb-12 04:30N 37°13' W 122°44'611.6
2018-Feb-12 04:00N 37°19' W 122°43'611.5
2018-Feb-12 03:30N 37°24' W 122°44'611.1
2018-Feb-12 03:00N 37°30' W 122°44'510.9
2018-Feb-12 02:30N 37°35' W 122°44'510.7
2018-Feb-12 02:00N 37°41' W 122°43'510.9
2018-Feb-12 01:30N 37°46' W 122°40'714.0
2018-Feb-12 01:00N 37°48' W 122°32'713.5
2018-Feb-12 00:30N 37°49' W 122°24'4 7.8
2018-Feb-12 00:00N 37°48' W 122°19'0 0.1
2018-Feb-11 23:28N 37°48' W 122°19'0 0.0
2018-Feb-11 22:58N 37°48' W 122°19'0 0.0
2018-Feb-11 22:28N 37°48' W 122°19'0 0.0
2018-Feb-11 21:58N 37°48' W 122°19'0 0.0
2018-Feb-11 21:28N 37°48' W 122°19'0 0.0
2018-Feb-11 20:58N 37°48' W 122°19'0 0.0
2018-Feb-11 20:28N 37°48' W 122°19'0 0.0
2018-Feb-11 19:58N 37°48' W 122°19'0 0.0
2018-Feb-11 19:28N 37°48' W 122°19'0 0.0
2018-Feb-11 18:58N 37°48' W 122°19'0 0.0
2018-Feb-11 18:28N 37°48' W 122°19'0 0.0
2018-Feb-11 17:58N 37°48' W 122°19'0 0.0
2018-Feb-11 17:28N 37°48' W 122°19'0 0.0
2018-Feb-11 16:58N 37°48' W 122°19'0 0.0
2018-Feb-11 16:28N 37°48' W 122°19'0 0.0
2018-Feb-11 15:58N 37°48' W 122°19'0 0.0
2018-Feb-11 15:28N 37°48' W 122°19'0 0.0
2018-Feb-11 14:58N 37°48' W 122°19'0 0.0
2018-Feb-11 14:28N 37°48' W 122°19'0 0.0
2018-Feb-11 13:58N 37°48' W 122°19'0 0.1
2018-Feb-11 13:30N 37°48' W 122°19'1 2.9
2018-Feb-11 13:00N 37°48' W 122°17'2 3.1
2018-Feb-11 12:30N 37°48' W 122°19'4 7.6
2018-Feb-11 12:00N 37°49' W 122°24'713.8
2018-Feb-11 11:30N 37°47' W 122°32'714.2
2018-Feb-11 11:00N 37°45' W 122°41'510.1
2018-Feb-11 10:30N 37°47' W 122°47'510.3
2018-Feb-11 10:00N 37°49' W 122°53'612.4
2018-Feb-11 09:30N 37°52' W 122°60'612.5
2018-Feb-11 09:00N 37°55' W 123°06'612.3
2018-Feb-11 08:30N 37°59' W 123°13'612.4
2018-Feb-11 08:00N 38°04' W 123°18'612.4
2018-Feb-11 07:30N 38°09' W 123°23'612.4
2018-Feb-11 07:00N 38°13' W 123°28'612.4
2018-Feb-11 06:30N 38°18' W 123°34'612.5
2018-Feb-11 06:00N 38°22' W 123°39'612.5
2018-Feb-11 05:30N 38°26' W 123°45'612.7
2018-Feb-11 05:00N 38°31' W 123°51'612.8
2018-Feb-11 04:30N 38°35' W 123°57'612.6
2018-Feb-11 04:00N 38°40' W 124°02'43613.2
2018-Feb-09 19:01N 45°51' W 125°28'4321.4
2018-Feb-09 17:00N 46°34' W 125°28'12118.5
2018-Feb-09 10:30N 48°30' W 124°39'5712.7
2018-Feb-09 06:01N 48°40' W 123°15'2311.6
2018-Feb-09 04:00N 49°03' W 123°21'9 9.4
2018-Feb-09 03:00N 49°07' W 123°07'9 0.4
2018-Feb-08 01:30N 49°11' W 122°55'2 5.1
2018-Feb-08 01:00N 49°09' W 122°58'4 8.3
2018-Feb-08 00:30N 49°08' W 123°04'5 9.4
2018-Feb-08 00:00N 49°07' W 123°11'5 9.8
2018-Feb-07 23:30N 49°06' W 123°19'3 7.0
2018-Feb-07 23:00N 49°03' W 123°19'1 1.8
2018-Feb-07 22:30N 49°02' W 123°18'3 5.8
2018-Feb-07 22:00N 49°00' W 123°15'816.5
2018-Feb-07 21:31N 48°55' W 123°06'102 8.5
2018-Feb-07 09:30N 47°16' W 122°25'0 0.0
2018-Feb-07 09:00N 47°16' W 122°25'0 0.0
2018-Feb-07 08:30N 47°16' W 122°25'0 0.0
2018-Feb-07 08:00N 47°16' W 122°25'0 0.0
2018-Feb-07 07:30N 47°16' W 122°25'0 0.0
2018-Feb-07 07:00N 47°16' W 122°25'0 0.0
2018-Feb-07 06:29N 47°16' W 122°25'0 0.0
2018-Feb-07 05:57N 47°16' W 122°25'0 0.0
2018-Feb-07 05:30N 47°16' W 122°25'0 0.0
2018-Feb-07 04:51N 47°16' W 122°25'0 0.0
2018-Feb-07 04:24N 47°16' W 122°25'0 0.0
2018-Feb-07 03:51N 47°16' W 122°25'0 0.0
2018-Feb-07 03:30N 47°16' W 122°25'0 0.0
2018-Feb-07 02:57N 47°16' W 122°25'0 0.0
2018-Feb-07 02:30N 47°16' W 122°25'0 0.0
2018-Feb-07 01:59N 47°16' W 122°25'0 0.0
2018-Feb-07 01:29N 47°16' W 122°25'0 0.7
2018-Feb-07 01:00N 47°17' W 122°25'1 1.6
2018-Feb-07 00:30N 47°17' W 122°26'3 5.9
2018-Feb-07 00:00N 47°20' W 122°27'612.4
2018-Feb-06 23:30N 47°26' W 122°24'815.9
2018-Feb-06 23:00N 47°34' W 122°27'917.9
2018-Feb-06 22:30N 47°43' W 122°28'1019.1
2018-Feb-06 22:00N 47°52' W 122°29'918.8
2018-Feb-06 21:30N 47°60' W 122°37'918.0
2018-Feb-06 20:59N 48°08' W 122°43'918.6
2018-Feb-06 20:30N 48°11' W 122°56'1020.3
2018-Feb-06 20:00N 48°12' W 123°11'816.3
2018-Feb-06 19:30N 48°10' W 123°23'1113.3
2018-Feb-06 18:41N 48°13' W 123°38'415.9
2018-Feb-06 18:25N 48°13' W 123°45'615.1
2018-Feb-06 18:00N 48°13' W 123°54'815.3
2018-Feb-06 17:30N 48°16' W 124°05'714.2
2018-Feb-06 17:00N 48°19' W 124°15'713.3
2018-Feb-06 16:30N 48°22' W 124°24'2315.5
2018-Feb-06 15:00N 48°29' W 124°58'613.1
2018-Feb-06 14:30N 48°23' W 125°03'815.1
2018-Feb-06 13:59N 48°16' W 125°08'814.8
2018-Feb-06 13:29N 48°09' W 125°11'10517.4
2018-Feb-06 07:25N 46°24' W 125°28'717.3
2018-Feb-06 07:00N 46°17' W 125°28'1317.6
2018-Feb-06 06:15N 46°04' W 125°28'918.0
2018-Feb-06 05:45N 45°55' W 125°28'418.2
2018-Feb-06 05:30N 45°50' W 125°28'918.3
2018-Feb-06 05:00N 45°41' W 125°28'1818.3
2018-Feb-06 04:00N 45°23' W 125°27'918.2
2018-Feb-06 03:30N 45°14' W 125°28'7018.4
2018-Feb-05 23:41N 44°04' W 125°28'30318.7
2018-Feb-05 07:30N 39°05' W 124°21'1119.4
2018-Feb-05 06:55N 38°56' W 124°11'920.1
2018-Feb-05 06:27N 38°49' W 124°03'1919.8
2018-Feb-05 05:31N 38°35' W 123°48'1019.5
2018-Feb-05 05:01N 38°28' W 123°39'1019.3
2018-Feb-05 04:31N 38°20' W 123°32'1019.7
2018-Feb-05 04:01N 38°13' W 123°24'1019.9
2018-Feb-05 03:30N 38°05' W 123°16'1019.9
2018-Feb-05 03:01N 37°58' W 123°07'1020.3
2018-Feb-05 02:31N 37°53' W 122°56'918.1
2018-Feb-05 02:01N 37°48' W 122°46'611.7
2018-Feb-05 01:30N 37°46' W 122°39'714.5
2018-Feb-05 01:00N 37°49' W 122°31'611.7
2018-Feb-05 00:30N 37°49' W 122°23'4 7.6
2018-Feb-05 00:00N 37°48' W 122°19'0 0.1
2018-Feb-04 23:30N 37°48' W 122°19'0 0.0
2018-Feb-04 23:00N 37°48' W 122°19'0 0.0
2018-Feb-04 22:30N 37°48' W 122°19'0 0.0
2018-Feb-04 22:00N 37°48' W 122°19'0 0.0
2018-Feb-04 21:30N 37°48' W 122°19'0 0.0
2018-Feb-04 21:00N 37°48' W 122°19'0 0.0
2018-Feb-04 20:00N 37°48' W 122°19'0 0.0
2018-Feb-04 19:30N 37°48' W 122°19'0 0.0
2018-Feb-04 19:00N 37°48' W 122°19'0 0.0
2018-Feb-04 18:30N 37°48' W 122°19'0 0.0
2018-Feb-04 17:58N 37°48' W 122°19'0 0.0
2018-Feb-04 17:30N 37°48' W 122°19'0 0.0
2018-Feb-04 15:31N 37°48' W 122°19'0 0.0
2018-Feb-04 15:00N 37°48' W 122°19'0 0.0
2018-Feb-04 14:30N 37°48' W 122°19'0 0.0
2018-Feb-04 14:00N 37°48' W 122°19'0 0.1
2018-Feb-04 13:30N 37°48' W 122°19'1 1.7
2018-Feb-04 13:00N 37°48' W 122°17'3 5.1
2018-Feb-04 12:30N 37°48' W 122°21'5 9.5
2018-Feb-04 12:01N 37°49' W 122°26'611.0
2018-Feb-04 11:30N 37°47' W 122°33'13 8.7
2018-Feb-04 10:00N 37°35' W 122°40'  

Dump ship's entire track history